Location: Nitra
(0.0000°N, 18.0833°E)
Time: 19:15:33
(UTC+02:00)

A-11 Canister half - Pass Details

Date: 03 April 2023
Orbit: 1526 x 1682 km, 47.3° (Epoch: 08 June)

Event Time Altitude Azimuth Distance (km) Brightness Sun altitude
Rises 08:59:30 0° 186° (S) 4,808 11.5 32.0°
Reaches altitude 10° 09:05:19 10° 159° (SSE) 3,859 11.4 33.4°
Maximum altitude 09:09:14 13° 135° (SE) 3,658 11.6 34.4°
Drops below altitude 10° 09:13:09 10° 111° (ESE) 3,901 12.2 35.3°
Sets 09:19:01 0° 85° (E) 4,911 12.6 36.8°
